{"data":{"norad_id":68840,"epoch":"2026-05-25T04:00:03.998880Z","epoch_age_seconds":53814,"freshness":"FRESH","line1":"1 68840U 26094B   26145.16671295 -.00009634  00000+0 -17576-3 0  9994","line2":"2 68840  97.2854 159.7827 0000912 118.9269 118.3987 15.49179030  5607","mean_motion":15.4917903,"eccentricity":9.12e-5,"inclination_deg":97.2854,"raan_deg":159.7827,"arg_perigee_deg":118.9269,"mean_anomaly_deg":118.3987,"bstar":-0.00017576,"rev_number":560,"period_min":92.952458825885,"perigee_km":418.50652098047,"apogee_km":419.74634183036,"semimajor_km":6797.2634314054,"source":"CELESTRAK","updated_at":"2026-05-25T13:38:22.045564Z"}}